BEL275 EBBR-GBYD

Flight info

Callsign BEL275
Flight time N/A
Altitude 33000
Route CIV N872 LESDO DCT KOVIN DCT NIDUV DCT KIHVI UN872 DITAL/N0455F390 UN872 ERIGA DCT FUJTI DCT PEPET DCT BAKUP DCT BATAX DCT NSA DCT MOMAS DCT SGR DCT TAKAV DCT ROLRO DCT SOLNA L660 LAY Y601 KEMUL/N0461F400 Y601 GUPEL UB601 ANITI UB600 BJ
Aircraft A333/H-SDE3GHIJ2J3J5M1RVWXY/LB2D1

Departure

Time N/A
Airport Brussels Airport (EBBR)

Arrival

Time 2026-04-14 16:18
Airport Banjul International Airport (GBYD)
Time Latitude Longitude Altitude Speed Heading
2026-04-14 14:31 24.17627 -14.14125 39097 ft 406 kts 201°
2026-04-14 14:31 24.14901 -14.14972 39268 ft 407 kts 201°
2026-04-14 14:32 24.12181 -14.15817 39482 ft 407 kts 201°
2026-04-14 14:32 24.09455 -14.16663 39670 ft 407 kts 201°
2026-04-14 14:32 24.06725 -14.17510 39860 ft 408 kts 201°
2026-04-14 14:32 24.03990 -14.18358 40012 ft 409 kts 201°
2026-04-14 14:33 23.98545 -14.20045 40038 ft 409 kts 201°
2026-04-14 14:33 23.93071 -14.21738 40049 ft 409 kts 201°
2026-04-14 14:34 23.84841 -14.24283 40039 ft 411 kts 201°
2026-04-14 14:35 23.79341 -14.25981 40035 ft 411 kts 201°
2026-04-14 14:35 23.73843 -14.27677 40037 ft 411 kts 201°
2026-04-14 14:36 23.68353 -14.29368 40034 ft 409 kts 201°
2026-04-14 14:36 23.62892 -14.31049 40033 ft 406 kts 201°
2026-04-14 14:37 23.57456 -14.32722 40019 ft 406 kts 201°
2026-04-14 14:37 23.52018 -14.34396 40034 ft 406 kts 201°
2026-04-14 14:38 23.46580 -14.36067 40026 ft 406 kts 201°
2026-04-14 14:38 23.41137 -14.37737 40028 ft 406 kts 201°
2026-04-14 14:39 23.35703 -14.39403 40022 ft 405 kts 201°
2026-04-14 14:39 23.30297 -14.41058 40022 ft 403 kts 201°
2026-04-14 14:40 23.24900 -14.42711 40021 ft 403 kts 201°
2026-04-14 14:40 23.19505 -14.44362 40019 ft 403 kts 201°
2026-04-14 14:41 23.14109 -14.46012 40019 ft 403 kts 201°
2026-04-14 14:41 23.08713 -14.47660 40017 ft 403 kts 201°
2026-04-14 14:42 23.03320 -14.49305 40011 ft 401 kts 201°
2026-04-14 14:42 22.97959 -14.50938 40023 ft 400 kts 201°
2026-04-14 14:43 22.92601 -14.52571 40013 ft 400 kts 201°
2026-04-14 14:43 22.87247 -14.54202 40006 ft 400 kts 201°
2026-04-14 14:44 22.81893 -14.55830 40009 ft 400 kts 201°
2026-04-14 14:44 22.76535 -14.57458 40016 ft 400 kts 201°
2026-04-14 14:45 22.71175 -14.59086 40000 ft 400 kts 201°
2026-04-14 14:45 22.65825 -14.60709 39998 ft 399 kts 201°
2026-04-14 14:46 22.60481 -14.62329 39998 ft 399 kts 201°
2026-04-14 14:46 22.55139 -14.63947 39993 ft 399 kts 201°
2026-04-14 14:47 22.50694 -14.65293 39993 ft 399 kts 201°
2026-04-14 14:47 22.44479 -14.67172 39992 ft 399 kts 201°
2026-04-14 14:48 22.39139 -14.68785 39987 ft 398 kts 201°
2026-04-14 14:48 22.34682 -14.70130 39991 ft 396 kts 201°
2026-04-14 14:49 22.28512 -14.71992 39984 ft 396 kts 201°
2026-04-14 14:49 22.24063 -14.73334 39982 ft 396 kts 201°
2026-04-14 14:50 22.18752 -14.74934 39981 ft 396 kts 201°
2026-04-14 14:50 22.13438 -14.76534 39977 ft 396 kts 201°
2026-04-14 14:51 22.08127 -14.78131 39973 ft 396 kts 201°
2026-04-14 14:51 22.02866 -14.79711 39971 ft 394 kts 201°
2026-04-14 14:52 21.97559 -14.81308 39970 ft 401 kts 201°
2026-04-14 14:52 21.92079 -14.82958 39969 ft 411 kts 201°
2026-04-14 14:53 21.86497 -14.84634 39965 ft 421 kts 200°
2026-04-14 14:53 21.80865 -14.86319 39968 ft 423 kts 200°
2026-04-14 14:54 21.75161 -14.88021 39960 ft 422 kts 200°
2026-04-14 14:54 21.69513 -14.89707 39966 ft 421 kts 200°
2026-04-14 14:55 21.63880 -14.91390 39965 ft 420 kts 200°
2026-04-14 14:55 21.58237 -14.93076 39963 ft 421 kts 200°
2026-04-14 14:56 21.49762 -14.95606 39960 ft 423 kts 200°
2026-04-14 14:56 21.44089 -14.97296 39951 ft 423 kts 200°
2026-04-14 14:57 21.38422 -14.98983 39958 ft 422 kts 200°
2026-04-14 14:57 21.32810 -15.00652 39955 ft 421 kts 200°
2026-04-14 14:58 21.27159 -15.02332 39957 ft 421 kts 200°
2026-04-14 14:58 21.21513 -15.04009 39955 ft 421 kts 200°
2026-04-14 14:59 21.15863 -15.05686 39958 ft 421 kts 200°
2026-04-14 14:59 21.10216 -15.07360 39940 ft 421 kts 200°
2026-04-14 15:00 21.04541 -15.09041 39956 ft 419 kts 200°
2026-04-14 15:00 20.98924 -15.10703 39956 ft 419 kts 200°
2026-04-14 15:01 20.93341 -15.12355 39955 ft 419 kts 200°
2026-04-14 15:01 20.87684 -15.14027 39955 ft 419 kts 200°
2026-04-14 15:02 20.82069 -15.15685 39952 ft 419 kts 200°
2026-04-14 15:02 20.76448 -15.17343 39951 ft 419 kts 200°
2026-04-14 15:03 20.70869 -15.18989 39941 ft 419 kts 200°
2026-04-14 15:03 20.65248 -15.20646 39942 ft 419 kts 200°
2026-04-14 15:04 20.59634 -15.22299 39941 ft 419 kts 200°
2026-04-14 15:04 20.54012 -15.23952 39936 ft 419 kts 200°
2026-04-14 15:05 20.48392 -15.25604 39939 ft 419 kts 200°
2026-04-14 15:05 20.42769 -15.27255 39929 ft 419 kts 200°
2026-04-14 15:06 20.37142 -15.28908 39938 ft 420 kts 200°
2026-04-14 15:06 20.31499 -15.30562 39936 ft 420 kts 200°
2026-04-14 15:07 20.25860 -15.32215 39933 ft 420 kts 200°
2026-04-14 15:07 20.20226 -15.33864 39932 ft 420 kts 200°
2026-04-14 15:08 20.14589 -15.35514 39933 ft 420 kts 200°
2026-04-14 15:08 20.08945 -15.37165 39941 ft 421 kts 201°
2026-04-14 15:09 20.03290 -15.38817 39933 ft 422 kts 201°
2026-04-14 15:09 19.97632 -15.40469 39934 ft 422 kts 201°
2026-04-14 15:10 19.91964 -15.42123 39926 ft 422 kts 201°
2026-04-14 15:10 19.86308 -15.43772 39926 ft 422 kts 201°
2026-04-14 15:11 19.80643 -15.45422 39927 ft 422 kts 201°
2026-04-14 15:11 19.74977 -15.47072 39918 ft 423 kts 201°
2026-04-14 15:12 19.69289 -15.48727 39919 ft 424 kts 201°
2026-04-14 15:12 19.63594 -15.50382 39919 ft 424 kts 201°
2026-04-14 15:13 19.57894 -15.52037 39920 ft 424 kts 201°
2026-04-14 15:13 19.52202 -15.53689 39917 ft 424 kts 201°
2026-04-14 15:14 19.46542 -15.55331 39917 ft 424 kts 201°
2026-04-14 15:14 19.40840 -15.56984 39915 ft 426 kts 201°
2026-04-14 15:15 19.35119 -15.58642 39912 ft 427 kts 201°
2026-04-14 15:15 19.29390 -15.60299 39916 ft 427 kts 201°
2026-04-14 15:16 19.23664 -15.61955 39915 ft 427 kts 201°
2026-04-14 15:16 19.17938 -15.63610 39913 ft 427 kts 201°
2026-04-14 15:17 19.12208 -15.65264 39916 ft 426 kts 201°
2026-04-14 15:17 19.06497 -15.66912 39909 ft 426 kts 201°
2026-04-14 15:18 19.00774 -15.68563 39908 ft 427 kts 201°
2026-04-14 15:18 18.95049 -15.70214 39909 ft 427 kts 201°
2026-04-14 15:19 18.89319 -15.71863 39910 ft 427 kts 201°
2026-04-14 15:19 18.83590 -15.73512 39908 ft 427 kts 201°
2026-04-14 15:20 18.77863 -15.75159 39889 ft 427 kts 201°
2026-04-14 15:20 18.72125 -15.76808 39906 ft 428 kts 201°
2026-04-14 15:21 18.66374 -15.78460 39902 ft 429 kts 201°
2026-04-14 15:21 18.60608 -15.80114 39906 ft 429 kts 201°
2026-04-14 15:22 18.54850 -15.81765 39898 ft 429 kts 201°
2026-04-14 15:22 18.49095 -15.83413 39897 ft 429 kts 201°
2026-04-14 15:23 18.43335 -15.85062 39891 ft 429 kts 201°
2026-04-14 15:23 18.37557 -15.86717 39899 ft 432 kts 201°
2026-04-14 15:24 18.31748 -15.88378 39900 ft 433 kts 201°
2026-04-14 15:24 18.25937 -15.90038 39898 ft 433 kts 201°
2026-04-14 15:25 18.20133 -15.91694 39897 ft 433 kts 201°
2026-04-14 15:25 18.14321 -15.93353 39898 ft 433 kts 201°
2026-04-14 15:26 18.08589 -15.95193 39888 ft 427 kts 207°
2026-04-14 15:26 18.03107 -15.97605 39892 ft 427 kts 209°
2026-04-14 15:27 17.97670 -16.00130 39898 ft 427 kts 210°
2026-04-14 15:27 17.92251 -16.02666 39892 ft 426 kts 210°
2026-04-14 15:28 17.86871 -16.05173 39889 ft 426 kts 210°
2026-04-14 15:28 17.81452 -16.07688 39894 ft 426 kts 210°
2026-04-14 15:29 17.76031 -16.10199 39895 ft 426 kts 210°
2026-04-14 15:29 17.70596 -16.12715 39889 ft 428 kts 210°
2026-04-14 15:30 17.65147 -16.15237 39889 ft 428 kts 210°
2026-04-14 15:30 17.59688 -16.17760 39889 ft 428 kts 210°
2026-04-14 15:31 17.55162 -16.19851 39889 ft 428 kts 210°
2026-04-14 15:31 17.48807 -16.22786 39897 ft 428 kts 210°
2026-04-14 15:32 17.43356 -16.25301 39896 ft 428 kts 210°
2026-04-14 15:32 17.38819 -16.27394 39892 ft 428 kts 210°
2026-04-14 15:33 17.33359 -16.29910 39889 ft 428 kts 210°
2026-04-14 15:33 17.27886 -16.32432 39889 ft 428 kts 210°
2026-04-14 15:34 17.22426 -16.34945 39906 ft 428 kts 210°
2026-04-14 15:34 17.16968 -16.37455 39889 ft 428 kts 210°
2026-04-14 15:35 17.11542 -16.39950 39889 ft 428 kts 210°
2026-04-14 15:35 17.06092 -16.42454 39863 ft 428 kts 210°
2026-04-14 15:36 17.00637 -16.44960 39884 ft 429 kts 210°
2026-04-14 15:36 16.95164 -16.47472 39887 ft 429 kts 210°
2026-04-14 15:37 16.89725 -16.49965 39887 ft 429 kts 210°
2026-04-14 15:37 16.84255 -16.52472 39892 ft 429 kts 210°
2026-04-14 15:38 16.78778 -16.54980 39887 ft 429 kts 210°
2026-04-14 15:38 16.73308 -16.57483 39884 ft 429 kts 210°
2026-04-14 15:39 16.67858 -16.59977 39882 ft 431 kts 210°
2026-04-14 15:39 16.62348 -16.62497 39881 ft 432 kts 210°
2026-04-14 15:40 16.56824 -16.65020 39886 ft 432 kts 210°
2026-04-14 15:40 16.51312 -16.67535 39886 ft 432 kts 210°
2026-04-14 15:41 16.45832 -16.70035 39894 ft 432 kts 210°
2026-04-14 15:41 16.40326 -16.72545 39884 ft 432 kts 210°
2026-04-14 15:42 16.34815 -16.75056 39869 ft 432 kts 210°
2026-04-14 15:42 16.29280 -16.77578 39886 ft 434 kts 210°
2026-04-14 15:43 16.23742 -16.80098 39886 ft 434 kts 210°
2026-04-14 15:43 16.18244 -16.82599 39881 ft 434 kts 210°
2026-04-14 15:44 16.12710 -16.85113 39770 ft 429 kts 210°
2026-04-14 15:44 16.09996 -16.86340 39543 ft 421 kts 210°
2026-04-14 15:44 16.07336 -16.87543 39313 ft 412 kts 210°
2026-04-14 15:45 16.04718 -16.88727 39077 ft 405 kts 211°
2026-04-14 15:45 16.02156 -16.89888 38854 ft 399 kts 211°
2026-04-14 15:45 15.99614 -16.91044 38599 ft 399 kts 211°
2026-04-14 15:45 15.97100 -16.92192 38341 ft 401 kts 211°
2026-04-14 15:46 15.94537 -16.93362 38066 ft 403 kts 211°
2026-04-14 15:46 15.91966 -16.94533 37797 ft 403 kts 210°
2026-04-14 15:46 15.89394 -16.95701 37533 ft 404 kts 210°
2026-04-14 15:46 15.86810 -16.96873 37266 ft 404 kts 210°
2026-04-14 15:47 15.84236 -16.98039 37009 ft 404 kts 210°
2026-04-14 15:47 15.81657 -16.99207 36752 ft 404 kts 210°
2026-04-14 15:47 15.79077 -17.00375 36496 ft 405 kts 210°
2026-04-14 15:47 15.76486 -17.01547 36255 ft 405 kts 209°
2026-04-14 15:48 15.73906 -17.02715 36020 ft 405 kts 209°
2026-04-14 15:48 15.71321 -17.03884 35767 ft 405 kts 209°
2026-04-14 15:48 15.68733 -17.05055 35533 ft 406 kts 209°
2026-04-14 15:48 15.66151 -17.06222 35269 ft 405 kts 209°
2026-04-14 15:49 15.63560 -17.07394 35033 ft 406 kts 208°
2026-04-14 15:49 15.60967 -17.08567 34791 ft 407 kts 208°
2026-04-14 15:49 15.58365 -17.09743 34548 ft 408 kts 208°
2026-04-14 15:49 15.55793 -17.10905 34330 ft 408 kts 208°
2026-04-14 15:50 15.53185 -17.12083 34097 ft 408 kts 208°
2026-04-14 15:50 15.50585 -17.13256 33839 ft 405 kts 208°
2026-04-14 15:50 15.48018 -17.14412 33379 ft 401 kts 208°
2026-04-14 15:50 15.45466 -17.15561 32822 ft 398 kts 208°
2026-04-14 15:51 15.42927 -17.16705 32292 ft 396 kts 208°
2026-04-14 15:51 15.40405 -17.17843 31723 ft 395 kts 208°
2026-04-14 15:51 15.37890 -17.18977 31231 ft 392 kts 208°
2026-04-14 15:51 15.35408 -17.20094 30882 ft 385 kts 208°
2026-04-14 15:52 15.32964 -17.21194 30496 ft 381 kts 208°
2026-04-14 15:52 15.30534 -17.22289 30126 ft 380 kts 208°
2026-04-14 15:52 15.28142 -17.23368 29729 ft 380 kts 208°
2026-04-14 15:52 15.25715 -17.24463 29338 ft 379 kts 208°
2026-04-14 15:53 15.23297 -17.25554 28957 ft 378 kts 208°
2026-04-14 15:53 15.20885 -17.26640 28585 ft 377 kts 208°
2026-04-14 15:53 15.18476 -17.27724 28189 ft 376 kts 208°
2026-04-14 15:53 15.16078 -17.28802 27801 ft 375 kts 208°
2026-04-14 15:54 15.11331 -17.30937 27045 ft 372 kts 208°
2026-04-14 15:54 15.08948 -17.32008 26671 ft 372 kts 208°
2026-04-14 15:54 15.06581 -17.33072 26287 ft 371 kts 208°
2026-04-14 15:55 15.04214 -17.34136 25891 ft 370 kts 208°
2026-04-14 15:55 15.01858 -17.35194 25509 ft 369 kts 208°
2026-04-14 15:55 14.99504 -17.36252 25128 ft 368 kts 208°
2026-04-14 15:55 14.97155 -17.37306 24738 ft 368 kts 208°
2026-04-14 15:56 14.94805 -17.38362 24338 ft 367 kts 208°
2026-04-14 15:56 14.92464 -17.39412 23960 ft 366 kts 208°
2026-04-14 15:56 14.90125 -17.40462 23587 ft 365 kts 208°
2026-04-14 15:56 14.87826 -17.41493 23153 ft 364 kts 208°
2026-04-14 15:57 14.85503 -17.42536 22754 ft 364 kts 207°
2026-04-14 15:57 14.83183 -17.43576 22388 ft 363 kts 207°
2026-04-14 15:57 14.80858 -17.44620 21996 ft 363 kts 207°
2026-04-14 15:57 14.78528 -17.45630 21618 ft 364 kts 202°
2026-04-14 15:58 14.76056 -17.46252 21203 ft 368 kts 190°
2026-04-14 15:58 14.73485 -17.46212 20767 ft 373 kts 174°
2026-04-14 15:58 14.71005 -17.45394 20354 ft 377 kts 158°
2026-04-14 15:58 14.68678 -17.44140 19952 ft 377 kts 153°
2026-04-14 15:59 14.66395 -17.42805 19552 ft 375 kts 152°
2026-04-14 15:59 14.64170 -17.41490 19160 ft 372 kts 152°
2026-04-14 15:59 14.61923 -17.40168 18770 ft 370 kts 152°
2026-04-14 15:59 14.59687 -17.38857 18370 ft 368 kts 151°
2026-04-14 16:00 14.57468 -17.37560 17955 ft 365 kts 151°
2026-04-14 16:00 14.55269 -17.36275 17550 ft 361 kts 150°
2026-04-14 16:00 14.53098 -17.35008 17165 ft 357 kts 150°
2026-04-14 16:00 14.50939 -17.33749 16777 ft 355 kts 150°
2026-04-14 16:01 14.48788 -17.32496 16385 ft 354 kts 150°
2026-04-14 16:01 14.46654 -17.31252 16004 ft 351 kts 150°
2026-04-14 16:01 14.44556 -17.30030 15624 ft 349 kts 150°
2026-04-14 16:01 14.42455 -17.28807 15237 ft 346 kts 150°
2026-04-14 16:02 14.40357 -17.27586 14850 ft 344 kts 150°
2026-04-14 16:02 14.38284 -17.26379 14471 ft 341 kts 149°
2026-04-14 16:02 14.36218 -17.25177 14102 ft 338 kts 149°
2026-04-14 16:02 14.34178 -17.23990 13748 ft 336 kts 149°
2026-04-14 16:03 14.32143 -17.22806 13339 ft 333 kts 149°
2026-04-14 16:03 14.30124 -17.21632 12963 ft 332 kts 149°
2026-04-14 16:03 14.28136 -17.20475 12594 ft 332 kts 150°
2026-04-14 16:03 14.26125 -17.19306 12216 ft 331 kts 150°
2026-04-14 16:04 14.24121 -17.18141 11862 ft 330 kts 150°
2026-04-14 16:04 14.22129 -17.16984 11507 ft 329 kts 150°
2026-04-14 16:04 14.20133 -17.15824 11151 ft 328 kts 150°
2026-04-14 16:04 14.18150 -17.14673 10781 ft 327 kts 150°
2026-04-14 16:05 14.16166 -17.13521 10425 ft 327 kts 150°
2026-04-14 16:05 14.14215 -17.12388 10285 ft 314 kts 150°
2026-04-14 16:05 14.12352 -17.11307 10184 ft 301 kts 150°
2026-04-14 16:05 14.10551 -17.10262 10050 ft 292 kts 150°
2026-04-14 16:06 14.08824 -17.09259 9892 ft 285 kts 150°
2026-04-14 16:06 14.07092 -17.08254 9596 ft 284 kts 151°
2026-04-14 16:06 14.05373 -17.07257 9305 ft 282 kts 151°
2026-04-14 16:06 14.03670 -17.06269 9040 ft 280 kts 151°
2026-04-14 16:07 14.01971 -17.05284 8770 ft 278 kts 151°
2026-04-14 16:07 14.00287 -17.04308 8489 ft 276 kts 152°
2026-04-14 16:07 13.98625 -17.03344 8237 ft 273 kts 152°
2026-04-14 16:07 13.96967 -17.02384 7983 ft 271 kts 152°
2026-04-14 16:08 13.95341 -17.01443 7724 ft 270 kts 152°
2026-04-14 16:08 13.93710 -17.00500 7458 ft 268 kts 152°
2026-04-14 16:08 13.92087 -16.99564 7185 ft 266 kts 152°
2026-04-14 16:08 13.90476 -16.98636 6946 ft 265 kts 152°
2026-04-14 16:09 13.88876 -16.97713 6689 ft 263 kts 152°
2026-04-14 16:09 13.87287 -16.96793 6433 ft 261 kts 152°
2026-04-14 16:09 13.85708 -16.95875 6170 ft 259 kts 152°
2026-04-14 16:09 13.84145 -16.94965 5916 ft 258 kts 152°
2026-04-14 16:10 13.82589 -16.94063 5730 ft 256 kts 152°
2026-04-14 16:10 13.81036 -16.93163 5542 ft 256 kts 152°
2026-04-14 16:10 13.79490 -16.92269 5298 ft 255 kts 151°
2026-04-14 16:10 13.77948 -16.91376 5046 ft 253 kts 151°
2026-04-14 16:11 13.76431 -16.90498 4792 ft 252 kts 150°
2026-04-14 16:11 13.74899 -16.89613 4538 ft 252 kts 150°
2026-04-14 16:11 13.73372 -16.88730 4284 ft 251 kts 149°
2026-04-14 16:11 13.71850 -16.87850 4036 ft 250 kts 149°
2026-04-14 16:12 13.70329 -16.86972 3786 ft 251 kts 149°
2026-04-14 16:12 13.68828 -16.86106 3533 ft 251 kts 149°
2026-04-14 16:12 13.67288 -16.85213 3281 ft 250 kts 148°
2026-04-14 16:12 13.65784 -16.84343 3056 ft 254 kts 148°
2026-04-14 16:13 13.64206 -16.83430 2983 ft 265 kts 148°
2026-04-14 16:13 13.62584 -16.82488 2979 ft 269 kts 148°
2026-04-14 16:13 13.60885 -16.81690 2977 ft 268 kts 159°
2026-04-14 16:13 13.59088 -16.81156 2981 ft 269 kts 164°
2026-04-14 16:14 13.57272 -16.80690 2979 ft 269 kts 164°
2026-04-14 16:14 13.55453 -16.80220 2974 ft 270 kts 164°
2026-04-14 16:14 13.53629 -16.79740 2979 ft 270 kts 163°
2026-04-14 16:14 13.51815 -16.79262 2985 ft 269 kts 163°
2026-04-14 16:15 13.50001 -16.78800 2975 ft 268 kts 164°
2026-04-14 16:15 13.48191 -16.78339 2976 ft 267 kts 160°
2026-04-14 16:15 13.46561 -16.77475 2984 ft 262 kts 141°
2026-04-14 16:15 13.45187 -16.76278 2939 ft 262 kts 136°
2026-04-14 16:16 13.43832 -16.75029 2733 ft 262 kts 135°
2026-04-14 16:16 13.42485 -16.73792 2469 ft 256 kts 136°
2026-04-14 16:16 13.41183 -16.72609 2236 ft 243 kts 136°
2026-04-14 16:16 13.39940 -16.71527 1979 ft 225 kts 137°
2026-04-14 16:17 13.38763 -16.70558 1735 ft 207 kts 138°
2026-04-14 16:17 13.37704 -16.69672 1514 ft 187 kts 136°
2026-04-14 16:17 13.37155 -16.69028 1326 ft 177 kts 127°
2026-04-14 16:17 13.36312 -16.68163 998 ft 169 kts 137°
2026-04-14 16:18 13.35511 -16.67260 545 ft 173 kts 131°
2026-04-14 16:18 13.34719 -16.66327 114 ft 170 kts 134°
2026-04-14 16:18 13.34020 -16.65511 98 ft 122 kts 131°
2026-04-14 16:18 13.33655 -16.65080 95 ft 38 kts 131°
2026-04-14 16:19 13.33609 -16.65028 94 ft 6 kts 135°
2026-04-14 16:19 13.33603 -16.65022 95 ft 0 kts 139°
2026-04-14 16:19 13.33601 -16.65020 96 ft 1 kts 134°
2026-04-14 16:19 13.33602 -16.65012 95 ft 5 kts 95°
2026-04-14 16:20 13.33614 -16.64998 94 ft 1 kts 14°
2026-04-14 16:20 13.33650 -16.65039 95 ft 15 kts 297°
2026-04-14 16:20 13.33717 -16.65140 98 ft 21 kts 309°
2026-04-14 16:20 13.33821 -16.65254 98 ft 11 kts 338°
2026-04-14 16:21 13.33890 -16.65233 97 ft 14 kts 34°
2026-04-14 16:21 13.33967 -16.65190 99 ft 7 kts 354°
2026-04-14 16:21 13.34017 -16.65234 98 ft 15 kts 311°
2026-04-14 16:21 13.34096 -16.65268 97 ft 13 kts 16°
2026-04-14 16:22 13.34111 -16.65241 98 ft 4 kts 87°
2026-04-14 16:22 13.34098 -16.65215 99 ft 5 kts 128°
2026-04-14 16:22 13.34073 -16.65184 98 ft 5 kts 130°
2026-04-14 16:22 13.34067 -16.65178 99 ft 0 kts 130°